SCP
0 0 0 0 0 -0 -0 0 0 -0 0 0 -0 -0 -0 -0 -0 -0 0 0 0 -0 -0 -0 -0 -0 -0 -0 -0 -0 -0 -0
0 0 0 0 0 0 0 0 0 0 0 0 0 -0 -0 -0 -0 -0 -0 0 0 -0 -0 -0 -0 -0 -0 -0 -0 -0 -0 -0
0 0 0 0 0 -0 0 0 0 0 0 0 1 -0 -0 -0 -0 -0 -0 0 0 0 0 -0 -0 -0 -0 -0 -0 -0 -0 -0
0 0 0 0 0 -0 0 0 -0 0 0 0 0 0 -0 -0 -0 -0 -0 0 0 0 -0 -0 -0 -0 -0 -0 -0 -0 -0 -0
0 0 0 0 0 0 0 0 0 0 1 1 0 0 0 -0 -0 -0 -0 0 0 0 0 0 0 -0 -0 0 -0 -0 -0 -0
0 0 0 0 0 0 0 0 0 0 1 0 1 0 0 0 0 -0 0 0 0 0 0 0 0 0 0 0 -0 -0 -0 -0
0 0 0 0 0 0 0 0 0 0 2 3 1 0 0 0 0 0 0 0 0 0 0 0 0 -0 0 0 0 0 0 0
0 0 0 0 0 0 0 0 0 0 2 4 2 0 0 0 0 0 0 0 0 0 0 0 0 0 0 0 0 0 0 0
0 0 0 0 0 0 0 0 0 0 2 -0 -0 0 0 0 0 0 0 0 0 0 0 0 0 0 0 0 0 0 0 0
0 0 0 0 0 0 0 0 0 0 1 1 1 0 0 0 0 0 0 0 0 0 0 0 0 0 0 0 0 0 0 0
0 0 0 0 0 0 0 0 0 1 2 1 1 1 0 1 1 1 1 0 0 0 0 0 1 0 -0 0 0 0 0 0
0 0 0 0 0 0 0 0 0 0 1 0 0 1 1 1 2 2 1 1 1 0 0 0 1 0 -0 0 0 0 1 1
0 0 0 0 0 0 0 0 0 0 0 1 1 1 2 2 5 3 3 2 2 1 1 1 1 2 1 1 0 1 1 1
0 0 0 0 0 0 0 0 0 0 0 0 0 1 1 2 4 5 5 5 4 1 1 1 1 2 2 1 1 0 1 1
0 0 0 0 0 0 0 0 0 0 0 0 1 2 3 2 7 10 11 8 5 4 2 2 2 2 2 2 2 1 2 3
0 0 0 0 0 0 0 0 0 0 0 0 1 1 2 3 6 6 7 8 7 6 5 3 2 3 2 2 3 3 3 1
0 0 0 0 0 0 0 0 0 0 0 0 1 1 2 3 3 4 5 4 3 3 4 5 3 3 2 2 3 2 1 1
0 0 0 0 0 0 0 0 0 0 0 0 0 1 1 2 2 2 2 2 1 2 3 3 3 2 3 2 2 1 1 1
0 0 0 0 0 0 0 0 0 0 0 0 0 0 1 1 1 1 1 2 2 2 2 2 2 3 3 5 5 3 1 1
0 0 0 0 0 0 0 0 0 0 -0 0 0 0 1 1 1 1 1 1 2 2 2 2 2 2 3 3 3 3 3 4
Wind_Speed_500mb
15 29 33 36 44 40 31 32 13 7 29 23 29 29 37 54 48 44 62 54 49 44 43 45 48 44 39 34 28 24 25 28
28 42 48 56 46 41 25 28 15 15 26 26 26 31 46 51 49 51 50 53 47 42 42 42 45 42 38 33 26 22 23 28
33 49 51 49 59 67 9 22 19 13 34 29 25 45 55 55 48 53 48 53 47 42 41 40 41 41 36 32 25 20 20 25
38 47 51 53 64 49 11 24 38 23 44 37 36 47 56 54 51 49 46 55 47 43 40 40 39 37 34 30 25 21 22 27
46 46 47 55 70 9 18 36 9 23 31 30 43 47 55 55 56 53 42 57 51 47 43 40 38 36 34 30 26 23 25 27
48 43 49 53 64 34 27 33 20 12 21 36 56 51 52 54 58 50 42 52 52 47 43 40 38 34 31 28 25 24 26 27
59 55 47 48 48 46 40 40 25 14 24 31 45 46 49 56 55 50 46 46 50 49 44 40 37 37 35 33 31 29 29 29
46 46 46 54 46 58 44 43 31 27 35 29 23 40 47 53 57 51 53 45 42 40 45 39 38 38 37 35 34 33 33 31
55 64 59 51 49 49 42 36 30 37 37 53 50 34 47 46 48 47 50 47 44 43 36 35 33 39 36 33 32 31 29 29
56 62 58 45 59 36 42 38 37 28 52 44 45 45 40 45 45 47 50 45 46 49 38 39 37 27 24 20 22 25 25 26
70 57 62 50 38 39 39 39 34 48 37 36 34 38 41 37 44 46 46 45 46 47 43 48 39 23 26 23 19 12 18 23
64 63 58 37 32 33 35 41 28 33 44 44 37 34 36 45 46 48 48 47 41 45 39 48 36 26 32 29 27 24 28 28
46 61 51 27 37 35 40 44 33 32 28 22 34 35 31 32 50 53 53 49 44 48 41 50 49 26 34 26 31 29 31 31
54 41 54 33 46 43 46 38 40 42 34 38 42 44 39 35 37 46 53 53 48 39 37 39 52 43 35 35 26 30 28 34
53 51 42 41 42 47 57 51 46 38 44 45 33 22 40 40 43 42 46 49 52 41 37 32 43 41 37 33 33 31 28 37
50 57 47 47 41 41 61 57 45 41 52 48 41 34 35 29 47 49 43 48 52 55 36 34 26 35 30 33 32 34 35 43
48 46 49 46 45 33 38 53 49 50 52 49 47 39 36 32 25 34 44 52 45 43 50 36 35 32 36 32 33 37 51 48
42 46 48 45 43 40 37 40 52 50 48 47 45 51 46 37 32 33 34 29 31 36 46 49 38 36 32 34 33 33 31 34
54 48 48 41 43 47 43 50 57 56 52 50 50 48 58 46 37 33 33 36 32 30 31 41 46 40 41 25 33 26 31 30
51 43 34 45 29 36 45 34 34 49 54 54 50 48 58 52 43 35 31 25 33 35 29 24 28 34 37 45 40 28 30 34
Wind_Direction_500mb
240 237 243 255 246 240 233 119 127 136 95 63 104 106 129 135 148 155 153 156 153 156 161 166 168 169 165 162 154 150 148 150
254 238 227 250 264 269 216 122 155 95 90 97 107 120 127 140 139 145 145 155 153 154 158 167 170 171 169 168 164 160 158 160
231 238 249 242 249 269 241 133 162 140 113 110 110 127 139 144 142 143 151 153 150 152 159 167 171 172 174 175 174 171 169 169
230 233 234 251 253 244 299 197 189 156 120 112 131 140 145 145 144 146 164 153 151 152 158 164 170 175 181 183 185 185 181 177
240 224 239 234 248 221 202 264 155 176 111 131 143 150 149 145 146 152 168 160 157 156 159 161 169 178 183 189 193 192 186 183
236 247 229 237 237 199 228 231 86 47 87 157 146 153 151 147 148 153 156 164 161 159 159 161 164 173 180 184 190 190 188 187
228 226 244 233 234 215 220 222 147 154 66 98 139 153 155 151 151 152 157 166 167 166 163 163 165 167 173 179 185 187 190 191
234 239 235 251 247 189 193 233 151 126 94 126 97 161 165 162 158 158 163 161 170 168 170 169 172 174 175 179 185 189 193 194
244 244 249 249 252 180 179 210 218 163 142 145 164 199 178 173 168 165 166 165 176 172 173 171 182 180 182 184 189 194 200 200
233 248 251 259 247 243 202 205 205 219 168 165 173 180 191 180 172 167 166 169 178 184 178 175 199 197 183 195 199 203 210 207
244 246 248 245 250 263 179 223 212 131 143 164 174 177 186 188 171 171 171 173 175 187 189 175 203 213 179 196 207 227 229 242
225 244 256 236 240 259 185 203 149 168 165 164 172 179 191 181 178 173 174 177 183 194 195 180 187 208 182 203 216 209 227 248
229 220 238 219 232 237 208 195 173 193 189 192 182 180 190 178 172 175 180 179 185 190 206 194 190 186 198 204 203 219 219 240
217 221 223 190 220 224 225 211 220 188 195 198 200 188 177 187 166 175 176 181 183 189 207 212 201 201 203 202 219 213 228 233
208 217 210 198 219 214 215 215 215 198 201 201 185 173 169 179 180 185 178 191 192 188 207 220 209 212 216 210 214 218 232 223
217 196 213 203 220 231 207 206 212 201 212 197 183 175 176 190 186 201 199 198 196 192 188 211 221 210 214 224 223 221 233 238
205 200 200 213 207 220 220 202 205 201 211 198 180 176 165 178 175 189 202 211 211 207 201 201 203 216 219 223 233 236 239 246
214 223 189 202 212 217 234 182 207 199 208 204 181 172 165 172 173 173 177 188 193 196 203 203 206 211 219 229 235 252 257 263
216 200 180 191 217 199 234 183 207 197 206 202 195 183 166 169 171 174 179 190 199 208 208 209 208 210 218 214 219 240 252 278
210 187 188 186 200 214 219 183 201 206 211 192 200 196 166 165 171 177 185 192 188 197 204 214 215 213 218 227 234 241 259 252
Wind_Speed_850mb
15 29 33 36 44 40 31 32 13 7 29 23 29 29 37 54 48 44 62 54 49 44 43 45 48 44 39 34 28 24 25 28
28 42 48 56 46 41 25 28 15 15 26 26 26 31 46 51 49 51 50 53 47 42 42 42 45 42 38 33 26 22 23 28
33 49 51 49 59 67 9 22 19 13 34 29 25 45 55 55 48 53 48 53 47 42 41 40 41 41 36 32 25 20 20 25
38 47 51 53 64 49 11 24 38 23 44 37 36 47 56 54 51 49 46 55 47 43 40 40 39 37 34 30 25 21 22 27
46 46 47 55 70 9 18 36 9 23 31 30 43 47 55 55 56 53 42 57 51 47 43 40 38 36 34 30 26 23 25 27
48 43 49 53 64 34 27 33 20 12 21 36 56 51 52 54 58 50 42 52 52 47 43 40 38 34 31 28 25 24 26 27
59 55 47 48 48 46 40 40 25 14 24 31 45 46 49 56 55 50 46 46 50 49 44 40 37 37 35 33 31 29 29 29
46 46 46 54 46 58 44 43 31 27 35 29 23 40 47 53 57 51 53 45 42 40 45 39 38 38 37 35 34 33 33 31
55 64 59 51 49 49 42 36 30 37 37 53 50 34 47 46 48 47 50 47 44 43 36 35 33 39 36 33 32 31 29 29
56 62 58 45 59 36 42 38 37 28 52 44 45 45 40 45 45 47 50 45 46 49 38 39 37 27 24 20 22 25 25 26
70 57 62 50 38 39 39 39 34 48 37 36 34 38 41 37 44 46 46 45 46 47 43 48 39 23 26 23 19 12 18 23
64 63 58 37 32 33 35 41 28 33 44 44 37 34 36 45 46 48 48 47 41 45 39 48 36 26 32 29 27 24 28 28
46 61 51 27 37 35 40 44 33 32 28 22 34 35 31 32 50 53 53 49 44 48 41 50 49 26 34 26 31 29 31 31
54 41 54 33 46 43 46 38 40 42 34 38 42 44 39 35 37 46 53 53 48 39 37 39 52 43 35 35 26 30 28 34
53 51 42 41 42 47 57 51 46 38 44 45 33 22 40 40 43 42 46 49 52 41 37 32 43 41 37 33 33 31 28 37
50 57 47 47 41 41 61 57 45 41 52 48 41 34 35 29 47 49 43 48 52 55 36 34 26 35 30 33 32 34 35 43
48 46 49 46 45 33 38 53 49 50 52 49 47 39 36 32 25 34 44 52 45 43 50 36 35 32 36 32 33 37 51 48
42 46 48 45 43 40 37 40 52 50 48 47 45 51 46 37 32 33 34 29 31 36 46 49 38 36 32 34 33 33 31 34
54 48 48 41 43 47 43 50 57 56 52 50 50 48 58 46 37 33 33 36 32 30 31 41 46 40 41 25 33 26 31 30
51 43 34 45 29 36 45 34 34 49 54 54 50 48 58 52 43 35 31 25 33 35 29 24 28 34 37 45 40 28 30 34
Wind_Direction_850mb
240 237 243 255 246 240 233 119 127 136 95 63 104 106 129 135 148 155 153 156 153 156 161 166 168 169 165 162 154 150 148 150
254 238 227 250 264 269 216 122 155 95 90 97 107 120 127 140 139 145 145 155 153 154 158 167 170 171 169 168 164 160 158 160
231 238 249 242 249 269 241 133 162 140 113 110 110 127 139 144 142 143 151 153 150 152 159 167 171 172 174 175 174 171 169 169
230 233 234 251 253 244 299 197 189 156 120 112 131 140 145 145 144 146 164 153 151 152 158 164 170 175 181 183 185 185 181 177
240 224 239 234 248 221 202 264 155 176 111 131 143 150 149 145 146 152 168 160 157 156 159 161 169 178 183 189 193 192 186 183
236 247 229 237 237 199 228 231 86 47 87 157 146 153 151 147 148 153 156 164 161 159 159 161 164 173 180 184 190 190 188 187
228 226 244 233 234 215 220 222 147 154 66 98 139 153 155 151 151 152 157 166 167 166 163 163 165 167 173 179 185 187 190 191
234 239 235 251 247 189 193 233 151 126 94 126 97 161 165 162 158 158 163 161 170 168 170 169 172 174 175 179 185 189 193 194
244 244 249 249 252 180 179 210 218 163 142 145 164 199 178 173 168 165 166 165 176 172 173 171 182 180 182 184 189 194 200 200
233 248 251 259 247 243 202 205 205 219 168 165 173 180 191 180 172 167 166 169 178 184 178 175 199 197 183 195 199 203 210 207
244 246 248 245 250 263 179 223 212 131 143 164 174 177 186 188 171 171 171 173 175 187 189 175 203 213 179 196 207 227 229 242
225 244 256 236 240 259 185 203 149 168 165 164 172 179 191 181 178 173 174 177 183 194 195 180 187 208 182 203 216 209 227 248
229 220 238 219 232 237 208 195 173 193 189 192 182 180 190 178 172 175 180 179 185 190 206 194 190 186 198 204 203 219 219 240
217 221 223 190 220 224 225 211 220 188 195 198 200 188 177 187 166 175 176 181 183 189 207 212 201 201 203 202 219 213 228 233
208 217 210 198 219 214 215 215 215 198 201 201 185 173 169 179 180 185 178 191 192 188 207 220 209 212 216 210 214 218 232 223
217 196 213 203 220 231 207 206 212 201 212 197 183 175 176 190 186 201 199 198 196 192 188 211 221 210 214 224 223 221 233 238
205 200 200 213 207 220 220 202 205 201 211 198 180 176 165 178 175 189 202 211 211 207 201 201 203 216 219 223 233 236 239 246
214 223 189 202 212 217 234 182 207 199 208 204 181 172 165 172 173 173 177 188 193 196 203 203 206 211 219 229 235 252 257 263
216 200 180 191 217 199 234 183 207 197 206 202 195 183 166 169 171 174 179 190 199 208 208 209 208 210 218 214 219 240 252 278
210 187 188 186 200 214 219 183 201 206 211 192 200 196 166 165 171 177 185 192 188 197 204 214 215 213 218 227 234 241 259 252